Flag for United Kingdom Weather past 2 weeks in Southend-on-Sea, England, United Kingdom

Now
64 °F

Clear.


Feels Like: 64 °F
Forecast: 52 / 76 °F
Wind: 6 mph from Southwest

Location: Southend Airport-On-Sea

Current Time: Jun 30, 2015 at 12:53:48 AM

Latest Report: Jun 29, 2015 at 11:50 PM


Visibility: 10 mi

Pressure: 30.18 "Hg

Humidity: 68%

Dew point: 54 °F

Location of Southend-on-SeaLocation

Historic Weather in Southend-on-Sea — Graph

°F

Southend-on-Sea temperature yesterday

Maximum temperature yesterday: 77 °F (at 2:50 PM)
Minimum temperature yesterday: 55 °F (at 3:50 AM)
Average temperature yesterday: 68 °F

Past Weeks' High & Low Weather Summary

 TemperatureHumidityPressure
High79 °F (Jun 26, 2:20 PM)94% (Jun 20, 10:50 PM)30.30 "Hg (Jun 20, 10:50 PM)
Low43 °F (Jun 16, 1:50 AM)32% (Jun 29, 2:50 PM)29.74 "Hg (Jun 22, 2:20 PM)
Average63 °F63%30.10 "Hg
* Reported Jun 15 5:20 AM — Jun 29 11:50 PM, Southend-on-Sea, Weather by CustomWeather, © 2015

Note: Actual official high and low records may vary slightly from our data, if they occured in-between our weather recording intervals... More about our weather records

Advertising

Southend-on-Sea weather history for previous 24 hours

 ConditionsComfort  
Time TempWeatherWind HumidityBarometerVisibility
11:50 PM
Mon, Jun 29
64 °FClear.6 mph68%30.18 "Hg10 mi
11:20 PM64 °FClear.6 mph64%30.15 "Hg10 mi
10:20 PM66 °FClear.8 mph64%30.15 "Hg10 mi
9:50 PM70 °FSunny.9 mph60%30.15 "Hg10 mi
9:20 PM70 °FSunny.7 mph60%30.15 "Hg10 mi
8:50 PM70 °FSunny.3 mph57%30.15 "Hg10 mi
8:20 PM73 °FPassing clouds.7 mph50%30.15 "HgN/A
7:50 PM73 °FSunny.7 mph47%30.15 "Hg10 mi
7:20 PM75 °FSunny.8 mph41%30.15 "Hg10 mi
6:50 PM75 °FPassing clouds.8 mph41%30.15 "HgN/A
6:20 PM77 °FSunny.8 mph39%30.15 "Hg10 mi
5:50 PM77 °FPassing clouds.9 mph39%30.15 "HgN/A
5:20 PM77 °FPassing clouds.9 mph36%30.15 "HgN/A
4:50 PM77 °FPassing clouds.10 mph36%30.15 "HgN/A
4:20 PM75 °FPassing clouds.10 mph36%30.15 "HgN/A
3:50 PM75 °FPassing clouds.10 mph36%30.15 "HgN/A
3:20 PM75 °FPassing clouds.14 mph39%30.15 "HgN/A
2:50 PM77 °FPassing clouds.13 mph32%30.18 "HgN/A
2:20 PM75 °FPassing clouds.9 mph36%30.18 "HgN/A
1:50 PM75 °FSunny.10 mph36%30.18 "Hg10 mi
1:20 PM73 °FSunny.9 mph38%30.18 "Hg10 mi
12:50 PM72 °FPassing clouds.7 mph47%30.18 "HgN/A
12:20 PM72 °FPassing clouds.9 mph47%30.18 "HgN/A
11:50 AM72 °FPassing clouds.10 mph44%30.18 "HgN/A
11:20 AM70 °FPassing clouds.9 mph43%30.18 "HgN/A
10:50 AM70 °FPassing clouds.8 mph50%30.18 "HgN/A
10:20 AM68 °FPassing clouds.6 mph56%30.18 "HgN/A
9:50 AM66 °FPassing clouds.6 mph52%30.18 "HgN/A
9:20 AM66 °FSunny.3 mph60%30.18 "Hg10 mi
8:50 AM64 °FPassing clouds.5 mph60%30.18 "HgN/A
8:20 AM63 °FPassing clouds.6 mph68%30.18 "HgN/A
7:50 AM63 °FPassing clouds.8 mph68%30.18 "HgN/A
7:20 AM61 °FSunny.7 mph68%30.15 "Hg10 mi
6:50 AM61 °FSunny.5 mph72%30.15 "Hg10 mi
6:20 AM55 °FSunny.5 mph82%30.15 "Hg10 mi
5:50 AM57 °FSunny.6 mph77%30.15 "Hg10 mi
5:20 AM57 °FClear.2 mph77%30.15 "Hg10 mi
4:50 AM55 °FClear.5 mph82%30.15 "Hg10 mi
3:50 AM55 °FClear.3 mph82%30.12 "Hg10 mi
2:50 AM57 °FClear.3 mph77%30.12 "Hg10 mi
1:50 AM59 °FClear.3 mph77%30.12 "Hg10 mi
12:50 AM61 °FClear.8 mph77%30.12 "Hg10 mi
Weather by CustomWeather, © 2015

See weather overviewHow to use our weather pages